Woodward, OK

6:51 PM CDT on August 28, 2016 (GMT -0500)
West Woodward

Weather History for KWWR - July, 2013

Change the Weather History Date:

Saturday, July 13, 2013

  Actual Average (KGAG) Record (KGAG)
Temperature  
Mean Temperature 92 °F -  
Max Temperature 104 °F 93 °F 107 °F (1954)
Min Temperature 80 °F 68 °F 52 °F (1990)
Cooling Degree Days 27    
Growing Degree Days 42 (Base 50)    
Moisture  
Dew Point 56 °F    
Average Humidity 34    
Maximum Humidity 58    
Minimum Humidity 12    
Precipitation  
Precipitation 0.00 in - - ()
Sea Level Pressure  
Sea Level Pressure 29.99 in    
Wind  
Wind Speed 14 mph (South)    
Max Wind Speed 21 mph    
Max Gust Speed 24 mph    
Visibility 10 miles    
Events      
Averages and records for this station are not official NWS values.
T = Trace of Precipitation, MM = Missing Value Source: NWS Daily Summary

Daily Weather History Graph

Daily Weather History Graph

Search for Another Location

Airport or City:

Trip Planner

Search our weather history database for the weather conditions in past years. The results will help you decide how hot, cold, wet, or windy it might be!

Date:

Astronomy

Jul. 13, 2013 Rise Set
Actual Time 6:30 AM CDT 8:56 PM CDT
Civil Twilight 6:00 AM CDT 9:26 PM CDT
Nautical Twilight 5:24 AM CDT 10:03 PM CDT
Astronomical Twilight 4:43 AM CDT 10:43 PM CDT
Moon 11:38 AM CDT (7/13) 11:49 PM CDT (7/13)
Length of Visible Light 15h 25m
Length of Day
14h 26m
Waxing Crescent, 26% of the Moon is Illuminated
Jul 13
Waxing Crescent
Jul 15
First Quarter
Jul 22
Full
Jul 29
Last Quarter
Aug 6
New

Hourly Weather History & Observations

Time (CDT) Temp. Heat Index Dew Point Humidity Pressure Visibility Wind Dir Wind Speed Gust Speed Precip Events Conditions
12:15 AM 86.0 °F 86.6 °F 62.6 °F 45% 30.01 in 10.0 mi SE 15.0 mph 19.6 mph N/A   Clear
12:35 AM 84.2 °F 85.0 °F 62.6 °F 48% 30.02 in 10.0 mi SE 15.0 mph 20.7 mph N/A   Clear
12:55 AM 84.2 °F 85.0 °F 62.6 °F 48% 30.02 in 10.0 mi SE 15.0 mph - N/A   Clear
1:15 AM 84.2 °F 85.0 °F 62.6 °F 48% 30.02 in 10.0 mi SSE 18.4 mph - N/A   Clear
1:35 AM 82.4 °F 83.9 °F 64.4 °F 54% 30.02 in 10.0 mi SSE 17.3 mph 23.0 mph N/A   Clear
1:55 AM 82.4 °F 83.9 °F 64.4 °F 54% 30.02 in 10.0 mi SSE 17.3 mph 21.9 mph N/A   Clear
2:15 AM 82.4 °F 83.9 °F 64.4 °F 54% 30.02 in 10.0 mi SSE 17.3 mph 23.0 mph N/A   Clear
2:35 AM 82.4 °F 83.9 °F 64.4 °F 54% 30.02 in 10.0 mi SSE 17.3 mph 23.0 mph N/A   Clear
2:55 AM 80.6 °F 82.3 °F 64.4 °F 58% 30.02 in 10.0 mi SSE 15.0 mph - N/A   Clear
3:15 AM 80.6 °F 82.3 °F 64.4 °F 58% 30.01 in 10.0 mi SSE 16.1 mph - N/A   Clear
3:35 AM 80.6 °F 82.3 °F 64.4 °F 58% 30.02 in 10.0 mi SSE 15.0 mph - N/A   Clear
3:55 AM 80.6 °F 82.3 °F 64.4 °F 58% 30.01 in 10.0 mi SSE 16.1 mph 21.9 mph N/A   Clear
4:15 AM 80.6 °F 81.8 °F 62.6 °F 54% 30.01 in 10.0 mi SSE 15.0 mph 20.7 mph N/A   Clear
4:35 AM 80.6 °F 81.8 °F 62.6 °F 54% 30.01 in 10.0 mi South 17.3 mph - N/A   Clear
4:55 AM 80.6 °F 81.8 °F 62.6 °F 54% 30.01 in 10.0 mi South 17.3 mph - N/A   Clear
5:15 AM 80.6 °F 81.8 °F 62.6 °F 54% 30.01 in 10.0 mi South 15.0 mph 20.7 mph N/A   Clear
5:35 AM 80.6 °F 81.8 °F 62.6 °F 54% 30.01 in 10.0 mi South 16.1 mph 21.9 mph N/A   Clear
5:55 AM 80.6 °F 81.8 °F 62.6 °F 54% 30.01 in 10.0 mi South 15.0 mph 19.6 mph N/A   Clear
6:15 AM 80.6 °F 81.8 °F 62.6 °F 54% 30.01 in 10.0 mi South 15.0 mph - N/A   Clear
6:35 AM 80.6 °F 81.8 °F 62.6 °F 54% 30.02 in 10.0 mi South 16.1 mph 23.0 mph N/A   Clear
6:55 AM 80.6 °F 81.8 °F 62.6 °F 54% 30.02 in 10.0 mi South 12.7 mph - N/A   Clear
7:15 AM 80.6 °F 81.8 °F 62.6 °F 54% 30.02 in 10.0 mi South 17.3 mph 21.9 mph N/A   Clear
7:35 AM 80.6 °F 81.8 °F 62.6 °F 54% 30.03 in 10.0 mi South 15.0 mph 21.9 mph N/A   Clear
7:55 AM 82.4 °F 83.4 °F 62.6 °F 51% 30.03 in 10.0 mi South 15.0 mph 20.7 mph N/A   Clear
8:15 AM 82.4 °F 83.4 °F 62.6 °F 51% 30.03 in 10.0 mi South 17.3 mph 23.0 mph N/A   Clear
8:35 AM 84.2 °F 84.4 °F 60.8 °F 45% 30.02 in 10.0 mi South 20.7 mph 24.2 mph N/A   Clear
8:55 AM 86.0 °F 86.1 °F 60.8 °F 43% 30.03 in 10.0 mi South 17.3 mph 20.7 mph N/A   Clear
9:15 AM 87.8 °F 87.6 °F 60.8 °F 40% 30.04 in 10.0 mi SSW 19.6 mph 24.2 mph N/A   Clear
9:35 AM 87.8 °F 87.6 °F 60.8 °F 40% 30.04 in 10.0 mi SSW 19.6 mph - N/A   Clear
9:55 AM 87.8 °F 87.6 °F 60.8 °F 40% 30.04 in 10.0 mi SW 18.4 mph 21.9 mph N/A   Clear
10:15 AM 89.6 °F 89.5 °F 60.8 °F 38% 30.03 in 10.0 mi SSW 16.1 mph - N/A   Clear
10:35 AM 91.4 °F 90.7 °F 59.0 °F 34% 30.02 in 10.0 mi SSW 16.1 mph - N/A   Clear
10:55 AM 93.2 °F 91.3 °F 55.4 °F 28% 30.02 in 10.0 mi SSW 15.0 mph 21.9 mph N/A   Clear
11:15 AM 95.0 °F 92.7 °F 53.6 °F 25% 30.02 in 10.0 mi SW 15.0 mph - N/A   Clear
11:35 AM 96.8 °F 94.4 °F 53.6 °F 23% 30.02 in 10.0 mi SW 13.8 mph 18.4 mph N/A   Clear
11:55 AM 96.8 °F 94.4 °F 53.6 °F 23% 30.02 in 10.0 mi SSW 12.7 mph 18.4 mph N/A   Clear
12:15 PM 98.6 °F - 51.8 °F 21% 30.02 in 10.0 mi SW 11.5 mph - N/A   Clear
12:35 PM 98.6 °F - 51.8 °F 21% 30.02 in 10.0 mi SSW 11.5 mph 17.3 mph N/A   Clear
12:55 PM 100.4 °F - 50.0 °F 18% 30.02 in 10.0 mi WSW 10.4 mph - N/A   Clear
1:15 PM 100.4 °F - 50.0 °F 18% 30.01 in 10.0 mi SSW 9.2 mph - N/A   Clear
1:35 PM 100.4 °F - 50.0 °F 18% 30.01 in 10.0 mi SE 4.6 mph 21.9 mph N/A   Clear
1:55 PM 100.4 °F - 50.0 °F 18% 30.00 in 10.0 mi South 12.7 mph 17.3 mph N/A   Clear
2:15 PM 100.4 °F - 50.0 °F 18% 30.00 in 10.0 mi SSE 6.9 mph - N/A   Clear
2:35 PM 102.2 °F - 48.2 °F 16% 29.99 in 10.0 mi SSE 5.8 mph - N/A   Clear
2:55 PM 102.2 °F - 46.4 °F 15% 29.98 in 10.0 mi Calm Calm - N/A   Clear
3:15 PM 104.0 °F - 44.6 °F 13% 29.97 in 10.0 mi SSW 8.1 mph - N/A   Scattered Clouds
3:35 PM 104.0 °F - 44.6 °F 13% 29.97 in 10.0 mi SSW 12.7 mph 24.2 mph N/A   Clear
3:55 PM 104.0 °F - 44.6 °F 13% 29.96 in 10.0 mi Calm Calm - N/A   Clear
4:15 PM 104.0 °F - 42.8 °F 12% 29.96 in 10.0 mi South 9.2 mph 18.4 mph N/A   Clear
4:35 PM 104.0 °F - 42.8 °F 12% 29.95 in 10.0 mi South 5.8 mph - N/A   Clear
4:55 PM 104.0 °F - 44.6 °F 13% 29.95 in 10.0 mi SSE 6.9 mph - N/A   Clear
5:15 PM 102.2 °F - 44.6 °F 14% 29.95 in 10.0 mi SW 4.6 mph - N/A   Clear
5:35 PM 104.0 °F - 44.6 °F 13% 29.94 in 10.0 mi SSE 10.4 mph - N/A   Clear
5:55 PM 104.0 °F - 44.6 °F 13% 29.93 in 10.0 mi SE 9.2 mph - N/A   Clear
6:15 PM 104.0 °F - 42.8 °F 12% 29.93 in 10.0 mi SSE 11.5 mph - N/A   Clear
6:35 PM 104.0 °F - 42.8 °F 12% 29.93 in 10.0 mi SSE 8.1 mph - N/A   Clear
6:55 PM 104.0 °F - 42.8 °F 12% 29.92 in 10.0 mi SSW 6.9 mph 17.3 mph N/A   Clear
7:15 PM 102.2 °F - 42.8 °F 13% 29.91 in 10.0 mi SSE 12.7 mph - N/A   Clear
7:35 PM 100.4 °F - 44.6 °F 15% 29.92 in 10.0 mi SSE 11.5 mph - N/A   Clear
7:55 PM 100.4 °F - 46.4 °F 16% 29.92 in 10.0 mi SE 10.4 mph - N/A   Clear
8:15 PM 98.6 °F - 50.0 °F 19% 29.92 in 10.0 mi SE 9.2 mph - N/A   Clear
8:35 PM 95.0 °F - 51.8 °F 23% 29.92 in 10.0 mi SE 6.9 mph - N/A   Clear
8:55 PM 91.4 °F - 51.8 °F 26% 29.93 in 10.0 mi SE 6.9 mph - N/A   Clear
9:15 PM 91.4 °F 89.1 °F 53.6 °F 28% 29.93 in 10.0 mi SE 9.2 mph - N/A   Clear
9:35 PM 91.4 °F 89.1 °F 53.6 °F 28% 29.94 in 10.0 mi SE 10.4 mph - N/A   Clear
9:55 PM 89.6 °F 87.3 °F 53.6 °F 29% 29.95 in 10.0 mi SE 9.2 mph - N/A   Clear
10:15 PM 89.6 °F 87.3 °F 53.6 °F 29% 29.96 in 10.0 mi SE 10.4 mph - N/A   Clear
10:35 PM 87.8 °F 86.1 °F 55.4 °F 33% 29.97 in 10.0 mi SE 16.1 mph - N/A   Scattered Clouds
10:55 PM 87.8 °F 87.6 °F 60.8 °F 40% 29.97 in 10.0 mi SSE 16.1 mph - N/A   Clear
11:15 PM 87.8 °F 87.6 °F 60.8 °F 40% 29.97 in 10.0 mi SE 13.8 mph 19.6 mph N/A   Clear
11:35 PM 86.0 °F 86.6 °F 62.6 °F 45% 29.97 in 10.0 mi SSE 16.1 mph - N/A   Clear
11:55 PM 86.0 °F 86.6 °F 62.6 °F 45% 29.97 in 10.0 mi SSE 17.3 mph 23.0 mph N/A   Clear